User: anonymous   Login
Location: Columbia
(38.9520°N, 92.3340°W)
Time: 17:07:07
(UTC-05:00)
Language:

FENGYUN 3A - Orbit

View from above orbital plane
View from above orbital plane
View from above satellite
View from above satellite

Ground track
Ground track

The orbit data is extracted from the following two-line orbital elements,

1 32958U 08026A   16149.53268585  .00000011  00000-0  25086-4 0  9993
2 32958  98.4538 190.4633 0008921 323.9503  36.1075 14.19619046414762
Epoch (UTC): 28 May 2016 12:47:04
Eccentricity: 0.0008921
inclination: 98.4538°
perigee height: 820 km
apogee height: 833 km
right ascension of ascending node: 190.4633°
argument of perigee: 323.9503°
revolutions per day: 14.19619046
mean anomaly at epoch: 36.1075°
orbit number at epoch: 41476

The dashed part of the orbit path shows where the satellite is in the earth's shadow,  

DLR